sat.trackr.live / text

‹ back to catalog

TIANHUI 5D

NORAD 60212 · 2024-126B

PAYLOAD ACTIVE UNKNOWN

§ Identity

Operator
Country
PRC
Launch date
2024-07-04
Launch site
TAISC
Launch vehicle
Mass (kg)
RCS (m²)

External: N2YO · Heavens-Above · Gunter

§ Orbital elements

Epoch: 2026-09-22T13:34:55.739424Z

Period
96.80 min
Inclination
97.8208°
Eccentricity
0.0002090
Mean motion
14.87579879 rev/d
Perigee alt
604.0 km
Apogee alt
607.0 km
Semi-major
6,983.6 km
B*
1.9114e-5
RAAN
271.7528°
Arg perigee
93.0502°
Mean anomaly
267.0953°
Rev number
12,037

§ Raw data

TIANHUI 5D1 60212U 24126B   26265.56592291  .00000120  00000+0  19114-4 0  99982 60212  97.8208 271.7528 0002090  93.0502 267.0953 14.87579879120379

JSON: /api/v1/satellites/60212 · /tle

For live sub-satellite position, see the globe view (requires WebGL).

§ Visibility from observer

Set your observer location to see the next 7 days of passes ≥ 10°. The values pass through the URL so the page stays shareable.

No JS? Fill the form by hand. The geolocation button needs JavaScript.